When you browse on this site, cookies collect data to enhance your experience and personalize the content and advertising you see.
Visit our Privacy Policy to learn more. By continuing to use the site, you agree to this use of cookies and data.
  • în România
  • Lista ţărilor
  • Pe 7 zile
  • Temperatura apei
  • Hartă satelitară
  • Meteo pe hartă
  • Widget-uri
  • user-avatar
    Intrare

    Meteo pe oră la Maracaibo

    Astăzi, 17 Iulie, Miercuri

    Timp Temperatura Precipitaţii Vânt Presiune Umiditate
    00:00 +28°C° 0.4 mm 4 m/s 754 mmHg 76%
    01:00 +27°C° 0.4 mm 3 m/s 753 mmHg 77%
    02:00 +27°C° 0 mm 3 m/s 753 mmHg 77%
    03:00 +27°C° 0 mm 3 m/s 753 mmHg 77%
    04:00 +27°C° 0 mm 3 m/s 753 mmHg 76%
    05:00 +27°C° 0.1 mm 2 m/s 753 mmHg 76%
    06:00 +28°C° 0.1 mm 2 m/s 753 mmHg 75%
    07:00 +28°C° 0.1 mm 2 m/s 754 mmHg 74%
    08:00 +29°C° 0 mm 2 m/s 754 mmHg 70%
    09:00 +31°C° 0 mm 2 m/s 753 mmHg 65%
    10:00 +32°C° 0 mm 2 m/s 753 mmHg 60%
    11:00 +34°C° 0.3 mm 2 m/s 753 mmHg 58%
    12:00 +34°C° 0.3 mm 3 m/s 752 mmHg 57%
    13:00 +35°C° 0.3 mm 3 m/s 752 mmHg 56%
    14:00 +35°C° 0.1 mm 3 m/s 751 mmHg 56%
    15:00 +34°C° 0.1 mm 4 m/s 751 mmHg 56%
    16:00 +34°C° 0.1 mm 4 m/s 751 mmHg 56%
    17:00 +33°C° 0 mm 5 m/s 751 mmHg 62%
    18:00 +32°C° 0 mm 5 m/s 751 mmHg 67%
    19:00 +29°C° 0 mm 5 m/s 752 mmHg 73%
    20:00 +29°C° 0 mm 5 m/s 752 mmHg 73%
    21:00 +29°C° 0 mm 5 m/s 753 mmHg 74%
    22:00 +29°C° 0 mm 5 m/s 753 mmHg 74%
    23:00 +29°C° 0 mm 5 m/s 753 mmHg 75%

    Mâine, 18 Iulie, Joi

    Timp Temperatura Precipitaţii Vânt Presiune Umiditate
    00:00 +29°C° 0 mm 4 m/s 753 mmHg 76%
    01:00 +28°C° 0 mm 3 m/s 753 mmHg 77%
    02:00 +28°C° 0.2 mm 3 m/s 753 mmHg 78%
    03:00 +28°C° 0.2 mm 2 m/s 752 mmHg 79%
    04:00 +27°C° 0.2 mm 2 m/s 752 mmHg 80%
    05:00 +28°C° 0.1 mm 2 m/s 752 mmHg 79%
    06:00 +28°C° 0.1 mm 2 m/s 753 mmHg 78%
    07:00 +28°C° 0.1 mm 2 m/s 753 mmHg 76%
    08:00 +30°C° 0 mm 2 m/s 753 mmHg 71%
    09:00 +33°C° 0 mm 3 m/s 753 mmHg 65%
    10:00 +34°C° 0 mm 3 m/s 753 mmHg 59%
    11:00 +35°C° 0 mm 3 m/s 752 mmHg 57%
    12:00 +35°C° 0 mm 3 m/s 752 mmHg 56%
    13:00 +36°C° 0 mm 3 m/s 751 mmHg 54%
    14:00 +36°C° 0 mm 3 m/s 750 mmHg 54%
    15:00 +36°C° 0 mm 3 m/s 750 mmHg 53%
    16:00 +35°C° 0 mm 3 m/s 749 mmHg 53%
    17:00 +34°C° 0.1 mm 3 m/s 750 mmHg 61%
    18:00 +31°C° 0.1 mm 3 m/s 750 mmHg 69%
    19:00 +30°C° 0.1 mm 4 m/s 751 mmHg 77%
    20:00 +29°C° 0 mm 4 m/s 751 mmHg 78%
    21:00 +29°C° 0 mm 4 m/s 752 mmHg 78%
    22:00 +29°C° 0 mm 4 m/s 752 mmHg 79%
    23:00 +29°C° 0 mm 4 m/s 752 mmHg 80%

    Poimâine, 19 Iulie, Vineri

    Timp Temperatura Precipitaţii Vânt Presiune Umiditate
    00:00 +28°C° 0 mm 3 m/s 752 mmHg 81%
    01:00 +28°C° 0 mm 3 m/s 752 mmHg 81%
    02:00 +28°C° 0.2 mm 2 m/s 751 mmHg 84%
    03:00 +28°C° 0.2 mm 2 m/s 751 mmHg 86%
    04:00 +27°C° 0.2 mm 2 m/s 751 mmHg 88%
    05:00 +28°C° 0 mm 2 m/s 751 mmHg 86%
    06:00 +28°C° 0 mm 2 m/s 752 mmHg 84%
    07:00 +29°C° 0 mm 2 m/s 752 mmHg 82%
    08:00 +30°C° 0 mm 2 m/s 752 mmHg 75%
    09:00 +32°C° 0 mm 2 m/s 752 mmHg 68%
    10:00 +35°C° 0 mm 2 m/s 752 mmHg 61%
    11:00 +35°C° 0 mm 2 m/s 752 mmHg 58%
    12:00 +36°C° 0 mm 2 m/s 751 mmHg 54%
    13:00 +37°C° 0 mm 2 m/s 750 mmHg 50%
    14:00 +37°C° 0 mm 2 m/s 750 mmHg 50%
    15:00 +37°C° 0 mm 3 m/s 749 mmHg 49%
    16:00 +37°C° 0 mm 3 m/s 749 mmHg 49%
    17:00 +35°C° 0.2 mm 4 m/s 750 mmHg 58%
    18:00 +33°C° 0.2 mm 4 m/s 750 mmHg 66%
    19:00 +30°C° 0.2 mm 4 m/s 751 mmHg 75%
    20:00 +30°C° 0 mm 4 m/s 751 mmHg 76%
    21:00 +29°C° 0 mm 4 m/s 752 mmHg 77%
    22:00 +29°C° 0 mm 4 m/s 752 mmHg 78%
    23:00 +29°C° 0 mm 3 m/s 752 mmHg 79%

    20 Iulie, Sâmbătă

    Timp Temperatura Precipitaţii Vânt Presiune Umiditate
    00:00 +29°C° 0 mm 3 m/s 751 mmHg 80%
    01:00 +28°C° 0 mm 2 m/s 751 mmHg 81%
    02:00 +28°C° 0 mm 2 m/s 751 mmHg 82%
    03:00 +28°C° 0 mm 2 m/s 751 mmHg 82%
    04:00 +28°C° 0 mm 2 m/s 750 mmHg 83%
    05:00 +28°C° 0 mm 2 m/s 751 mmHg 80%
    06:00 +29°C° 0 mm 2 m/s 751 mmHg 78%
    07:00 +29°C° 0 mm 2 m/s 752 mmHg 75%
    08:00 +31°C° 0 mm 2 m/s 752 mmHg 69%
    09:00 +34°C° 0 mm 2 m/s 752 mmHg 63%
    10:00 +35°C° 0 mm 2 m/s 752 mmHg 57%
    11:00 +36°C° 0 mm 2 m/s 751 mmHg 54%
    12:00 +36°C° 0 mm 3 m/s 751 mmHg 51%
    13:00 +37°C° 0 mm 3 m/s 750 mmHg 49%
    14:00 +37°C° 0 mm 4 m/s 749 mmHg 50%
    15:00 +36°C° 0 mm 4 m/s 749 mmHg 51%
    16:00 +36°C° 0 mm 5 m/s 748 mmHg 52%
    17:00 +34°C° 0 mm 5 m/s 749 mmHg 58%
    18:00 +33°C° 0 mm 6 m/s 749 mmHg 64%
    19:00 +30°C° 0 mm 6 m/s 750 mmHg 71%
    20:00 +30°C° 0 mm 5 m/s 750 mmHg 71%
    21:00 +30°C° 0 mm 5 m/s 751 mmHg 71%
    22:00 +30°C° 0 mm 4 m/s 752 mmHg 71%
    23:00 +30°C° 0 mm 4 m/s 751 mmHg 72%

    21 Iulie, Duminică

    Timp Temperatura Precipitaţii Vânt Presiune Umiditate
    00:00 +29°C° 0 mm 3 m/s 751 mmHg 74%
    01:00 +29°C° 0 mm 3 m/s 751 mmHg 75%
    02:00 +28°C° 0.1 mm 3 m/s 751 mmHg 75%
    03:00 +28°C° 0.1 mm 3 m/s 750 mmHg 76%
    04:00 +28°C° 0.1 mm 3 m/s 750 mmHg 76%
    05:00 +28°C° 0.1 mm 3 m/s 751 mmHg 74%
    06:00 +29°C° 0.1 mm 2 m/s 751 mmHg 71%
    07:00 +29°C° 0.1 mm 2 m/s 752 mmHg 68%
    08:00 +31°C° 0 mm 2 m/s 752 mmHg 62%
    09:00 +34°C° 0 mm 2 m/s 752 mmHg 56%
    10:00 +36°C° 0 mm 2 m/s 752 mmHg 50%
    11:00 +36°C° 0 mm 2 m/s 751 mmHg 49%
    12:00 +36°C° 0 mm 3 m/s 751 mmHg 48%
    13:00 +37°C° 0 mm 3 m/s 750 mmHg 47%
    14:00 +36°C° 0 mm 4 m/s 749 mmHg 48%
    15:00 +36°C° 0 mm 5 m/s 749 mmHg 49%
    16:00 +36°C° 0 mm 6 m/s 748 mmHg 50%
    17:00 +34°C° 0 mm 6 m/s 749 mmHg 56%
    18:00 +33°C° 0 mm 6 m/s 749 mmHg 62%
    19:00 +30°C° 0 mm 6 m/s 750 mmHg 68%
    20:00 +30°C° 0 mm 5 m/s 751 mmHg 69%
    21:00 +29°C° 0 mm 5 m/s 751 mmHg 69%
    22:00 +29°C° 0 mm 4 m/s 752 mmHg 69%
    23:00 +29°C° 0 mm 4 m/s 752 mmHg 71%

    22 Iulie, Luni

    Timp Temperatura Precipitaţii Vânt Presiune Umiditate
    00:00 +28°C° 0 mm 4 m/s 751 mmHg 73%
    01:00 +28°C° 0 mm 4 m/s 751 mmHg 74%
    02:00 +28°C° 0 mm 3 m/s 751 mmHg 75%
    03:00 +28°C° 0 mm 3 m/s 751 mmHg 76%
    04:00 +27°C° 0 mm 3 m/s 751 mmHg 76%
    05:00 +28°C° 0 mm 3 m/s 751 mmHg 74%
    06:00 +28°C° 0 mm 2 m/s 752 mmHg 72%
    07:00 +28°C° 0 mm 2 m/s 752 mmHg 70%
    08:00 +30°C° 0 mm 2 m/s 752 mmHg 63%
    09:00 +32°C° 0 mm 2 m/s 752 mmHg 57%
    10:00 +35°C° 0 mm 2 m/s 752 mmHg 51%
    11:00 +36°C° 0 mm 2 m/s 752 mmHg 49%
    12:00 +36°C° 0 mm 3 m/s 751 mmHg 48%
    13:00 +37°C° 0 mm 3 m/s 750 mmHg 47%
    14:00 +36°C° 0 mm 3 m/s 750 mmHg 48%
    15:00 +36°C° 0 mm 3 m/s 750 mmHg 50%
    16:00 +35°C° 0 mm 3 m/s 749 mmHg 51%
    17:00 +34°C° 0 mm 4 m/s 750 mmHg 58%
    18:00 +32°C° 0 mm 4 m/s 751 mmHg 66%
    19:00 +30°C° 0 mm 5 m/s 751 mmHg 73%
    20:00 +29°C° 0.2 mm 5 m/s 752 mmHg 74%
    21:00 +29°C° 0.2 mm 5 m/s 752 mmHg 76%
    22:00 +29°C° 0.2 mm 5 m/s 753 mmHg 78%
    23:00 +29°C° 0.1 mm 5 m/s 753 mmHg 78%
    Arată mai mult